Weather History for Destin, FL

Change the Weather History Date:

Tuesday, August 19, 2014

  Actual Average Record
Temperature  
Mean Temperature 86 °F -  
Max Temperature 91 °F 87 °F 93 °F (2006)
Min Temperature 80 °F 73 °F 72 °F (2001)
Cooling Degree Days 22    
Growing Degree Days 36 (Base 50)    
Moisture  
Dew Point 76 °F    
Average Humidity 72    
Maximum Humidity 82    
Minimum Humidity 57    
Precipitation  
Precipitation 0.00 in - - ()
Sea Level Pressure  
Sea Level Pressure 29.98 in    
Wind  
Wind Speed 7 mph (WSW)    
Max Wind Speed 12 mph    
Max Gust Speed 22 mph    
Visibility 10 miles    
Events Rain    
Averages and records for this station are not official NWS values.
T = Trace of Precipitation, MM = Missing Value Source: NWS Daily Summary

Daily Weather History Graph

Daily Weather History Graph

Search for Another Location

Airport:

Trip Planner

Search our weather history database for the weather conditions in past years. The results will help you decide how hot, cold, wet, or windy it might be!

Date:

Astronomy

Aug. 19, 2014 Rise Set
Actual Time 6:15 AM CDT 7:23 PM CDT
Civil Twilight 5:50 AM CDT 7:48 PM CDT
Nautical Twilight 5:20 AM CDT 8:18 PM CDT
Astronomical Twilight 4:49 AM CDT 8:48 PM CDT
Moon 1:13 AM CDT (8/19) 3:12 PM CDT (8/19)
Length of Visible Light 13h 58m
Length of Day
13h 08m
Waning Crescent, 29% of the Moon is Illuminated
Aug 19
Waning Crescent
Aug 25
New
Sep 2
First Quarter
Sep 8
Full
Sep 15
Last Quarter

Hourly Weather History & Observations

Time (CDT) Temp. Heat Index Dew Point Humidity Pressure Visibility Wind Dir Wind Speed Gust Speed Precip Events Conditions
12:53 AM 84.9 °F 95.3 °F 77.0 °F 77% 29.96 in 10.0 mi WSW 9.2 mph 17.3 mph N/A   Mostly Cloudy
1:53 AM 84.9 °F 95.3 °F 77.0 °F 77% 29.94 in 10.0 mi WSW 10.4 mph 20.7 mph N/A   Mostly Cloudy
2:43 AM 84.9 °F 95.3 °F 77.0 °F 77% 29.94 in 10.0 mi WSW 10.4 mph 17.3 mph N/A   Partly Cloudy
2:53 AM 84.9 °F 95.3 °F 77.0 °F 77% 29.94 in 10.0 mi WSW 11.5 mph - N/A   Partly Cloudy
3:53 AM 84.9 °F 95.3 °F 77.0 °F 77% 29.94 in 10.0 mi Variable 5.8 mph - N/A   Partly Cloudy
4:53 AM 84.9 °F 95.3 °F 77.0 °F 77% 29.96 in 10.0 mi WSW 8.1 mph - N/A   Partly Cloudy
5:53 AM 84.0 °F 93.7 °F 77.0 °F 79% 29.96 in 10.0 mi Variable 4.6 mph - N/A   Mostly Cloudy
6:53 AM 84.0 °F 94.8 °F 78.1 °F 82% 29.98 in 10.0 mi Variable 3.5 mph - 0.00 in   Partly Cloudy
7:53 AM 86.0 °F 96.9 °F 77.0 °F 74% 30.00 in 10.0 mi Variable 4.6 mph - N/A   Clear
8:53 AM 87.1 °F 98.8 °F 77.0 °F 72% 30.01 in 10.0 mi Variable 5.8 mph - N/A   Scattered Clouds
9:00 AM 87.1 °F 98.8 °F 77.0 °F 72% 30.01 in 10.0 mi WNW 4.6 mph - N/A   Mostly Cloudy
9:14 AM 88.0 °F 100.2 °F 77.0 °F 70% 30.02 in 10.0 mi WSW 6.9 mph - N/A   Mostly Cloudy
9:28 AM 87.1 °F 98.8 °F 77.0 °F 72% 30.02 in 10.0 mi Variable 4.6 mph - N/A   Mostly Cloudy
9:40 AM 87.1 °F 99.8 °F 78.1 °F 74% 30.02 in 10.0 mi Variable 3.5 mph - N/A   Scattered Clouds
9:53 AM 89.1 °F 101.4 °F 77.0 °F 67% 30.02 in 10.0 mi Variable 3.5 mph - N/A   Mostly Cloudy
10:05 AM 89.1 °F 101.4 °F 77.0 °F 67% 30.02 in 10.0 mi Calm Calm - N/A   Scattered Clouds
10:53 AM 89.1 °F 101.4 °F 77.0 °F 67% 30.02 in 10.0 mi SW 9.2 mph - N/A   Mostly Cloudy
11:53 AM 90.0 °F 102.5 °F 77.0 °F 65% 30.01 in 10.0 mi WSW 11.5 mph 18.4 mph 0.00 in Rain Light Rain
12:53 PM 91.0 °F 100.4 °F 73.9 °F 57% 29.99 in 10.0 mi SW 6.9 mph 18.4 mph 0.00 in   Clear
1:53 PM 90.0 °F 101.3 °F 75.9 °F 63% 29.98 in 10.0 mi WSW 11.5 mph 21.9 mph N/A   Clear
2:53 PM 90.0 °F 102.5 °F 77.0 °F 65% 29.96 in 10.0 mi SW 8.1 mph - N/A   Clear
3:53 PM 89.1 °F 101.4 °F 77.0 °F 67% 29.95 in 10.0 mi Variable 6.9 mph 17.3 mph N/A   Clear
4:53 PM 89.1 °F 101.4 °F 77.0 °F 67% 29.95 in 10.0 mi Variable 6.9 mph - N/A   Clear
5:53 PM 88.0 °F 100.2 °F 77.0 °F 70% 29.94 in 10.0 mi SW 6.9 mph - N/A   Clear
6:53 PM 86.0 °F 98.3 °F 78.1 °F 77% 29.96 in 10.0 mi WSW 8.1 mph - N/A   Clear
7:53 PM 84.9 °F 95.3 °F 77.0 °F 77% 29.95 in 10.0 mi WSW 6.9 mph - N/A   Clear
8:53 PM 84.9 °F 93.3 °F 75.0 °F 72% 30.00 in 10.0 mi NW 4.6 mph - N/A   Clear
9:31 PM 82.9 °F 90.2 °F 75.0 °F 77% 30.02 in 10.0 mi North 6.9 mph - N/A   Mostly Cloudy
9:53 PM 82.0 °F 86.7 °F 72.0 °F 71% 30.02 in 10.0 mi NW 5.8 mph - N/A   Scattered Clouds
10:53 PM 82.0 °F 87.4 °F 73.0 °F 74% 29.99 in 10.0 mi Calm Calm - 0.00 in Rain Light Rain
11:53 PM 80.1 °F 84.2 °F 73.0 °F 79% 29.98 in 10.0 mi NW 5.8 mph - 0.00 in   Clear